Date String (YYYY-MM-DD hh:mm:ss) UTC,Instrument flags,Ambient pressure (hPa),Sample flow (lpm),Bypass flow (lpm),Sample temperature (°C),Ambient temperature (°C),ASC tube jacket temperature (°C),LED temperature (°C),Box temperature (°C),Sample RH (%),Span deviation,Mass concentration (μg/m³),Mass concentration (μg/m³),Mass concentration (μg/m³)
DateTimeUTC,F1_M11,P_M11,Q1_M11,Q2_M11,T1_M11,T2_M11,T3_M11,T4_M11,T5_M11,U1_M11,ZSPAN_M11,X0_M11,X2_M11,X1_M11
2023-02-02 03:00:00,,0826.1,5.00,0.00,25.7,24.0,00.0,34.6,27.5,07.7,0000.7,0019.89,0011.75,0010.46
2023-02-02 03:01:00,,0826.2,5.00,0.00,25.7,24.0,00.0,34.6,27.5,07.7,0003.2,0020.21,0011.84,0010.54
2023-02-02 03:02:00,,0826.2,4.99,0.00,25.7,24.0,00.0,34.6,27.5,07.7,0003.3,0020.77,0011.90,0010.61
2023-02-02 03:03:00,,0826.2,5.00,0.00,25.7,24.0,00.0,34.6,27.5,07.7,0001.9,0021.41,0011.98,0010.66
2023-02-02 03:04:00,,0826.2,5.01,0.00,25.7,24.0,00.0,34.6,27.5,07.7,0000.0,0021.77,0012.00,0010.68
2023-02-02 03:05:00,,0826.2,4.99,0.00,25.7,24.0,00.0,34.6,27.5,07.7,0000.0,0021.80,0012.11,0010.75
2023-02-02 03:06:00,,0826.2,5.00,0.00,25.7,24.0,00.0,34.5,27.5,07.7,0000.0,0022.07,0012.22,0010.86
2023-02-02 03:07:00,,0826.2,5.00,0.00,25.7,24.0,00.0,34.5,27.4,07.7,0000.0,0022.73,0012.29,0010.93
2023-02-02 03:08:00,,0826.2,4.99,0.00,25.7,24.0,00.0,34.5,27.4,07.7,0000.0,0022.87,0012.40,0011.00
2023-02-02 03:09:00,,0826.2,5.00,0.00,25.6,24.0,00.0,34.5,27.4,07.7,0000.0,0022.88,0012.39,0011.00
2023-02-02 03:10:00,,0826.2,5.01,0.00,25.6,24.0,00.0,34.5,27.4,07.7,0001.8,0022.70,0012.41,0011.02
2023-02-02 03:11:00,,0826.2,5.01,0.00,25.6,24.0,00.0,34.5,27.4,07.7,0004.2,0022.33,0012.41,0011.09
2023-02-02 03:12:00,,0826.3,5.00,0.00,25.6,24.0,00.0,34.5,27.4,07.7,0003.8,0022.69,0012.54,0011.20
2023-02-02 03:13:00,,0826.2,5.00,0.00,25.6,23.9,00.0,34.5,27.4,07.7,0004.7,0022.58,0012.67,0011.32
2023-02-02 03:14:00,,0826.2,5.00,0.00,25.6,23.9,00.0,34.5,27.4,07.7,0004.6,0021.97,0012.72,0011.41
2023-02-02 03:15:00,,0826.2,5.00,0.00,25.6,23.9,00.0,34.5,27.4,07.7,0004.8,0021.83,0012.87,0011.52
2023-02-02 03:16:00,,0826.2,5.01,0.00,25.6,23.9,00.0,34.4,27.3,07.7,0005.1,0022.27,0012.89,0011.51
2023-02-02 03:17:00,,0826.4,4.99,0.00,25.6,23.9,00.0,34.4,27.3,07.7,0004.7,0021.87,0012.81,0011.43
2023-02-02 03:18:00,,0826.3,4.99,0.00,25.6,23.9,00.0,34.4,27.4,07.7,0000.0,0021.72,0012.77,0011.44
2023-02-02 03:19:00,,0826.2,5.01,0.00,25.5,23.9,00.0,34.4,27.3,07.7,0000.3,0022.10,0012.71,0011.42
2023-02-02 03:20:00,,0826.4,5.00,0.00,25.5,23.9,00.0,34.4,27.3,07.7,0005.2,0022.33,0012.66,0011.36
2023-02-02 03:21:00,,0826.4,5.00,0.00,25.5,23.9,00.0,34.4,27.3,07.7,0004.9,0022.62,0012.64,0011.32
2023-02-02 03:22:00,,0826.3,5.00,0.00,25.5,23.9,00.0,34.4,27.3,07.7,0003.2,0023.53,0012.62,0011.24
2023-02-02 03:23:00,,0826.4,5.00,0.00,25.5,23.9,00.0,34.4,27.3,07.7,0003.6,0022.94,0012.49,0011.14
2023-02-02 03:24:00,,0826.4,5.01,0.00,25.5,23.8,00.0,34.4,27.3,07.8,0003.4,0022.82,0012.44,0011.09
2023-02-02 03:25:00,,0826.4,5.00,0.00,25.5,23.8,00.0,34.4,27.3,07.8,0003.7,0023.72,0012.48,0011.09
2023-02-02 03:26:00,,0826.4,5.01,0.00,25.5,23.8,00.0,34.4,27.3,07.8,0004.2,0024.09,0012.43,0011.06
2023-02-02 03:27:00,,0826.4,5.02,0.00,25.4,23.8,00.0,34.3,27.3,07.8,0003.8,0023.93,0012.42,0011.09
2023-02-02 03:28:00,,0826.4,4.99,0.00,25.4,23.8,00.0,34.3,27.3,07.8,0003.3,0023.98,0012.50,0011.16
2023-02-02 03:29:00,,0826.3,5.01,0.00,25.4,23.8,00.0,34.3,27.2,07.8,0003.0,0023.49,0012.56,0011.18
2023-02-02 03:30:00,,0826.4,5.01,0.00,25.4,23.8,00.0,34.3,27.2,07.8,0003.1,0023.24,0012.64,0011.21
2023-02-02 03:31:00,,0826.4,4.99,0.00,25.4,23.8,00.0,34.3,27.2,07.9,0002.9,0023.05,0012.73,0011.26
2023-02-02 03:32:00,,0826.5,5.00,0.00,25.4,23.8,00.0,34.3,27.2,07.9,0002.9,0024.12,0012.82,0011.30
2023-02-02 03:33:00,,0826.5,5.00,0.00,25.4,23.7,00.0,34.3,27.2,08.0,0003.4,0023.87,0012.89,0011.37
2023-02-02 03:34:00,,0826.5,5.01,0.00,25.4,23.7,00.0,34.3,27.1,08.0,0003.4,0024.87,0013.09,0011.48
2023-02-02 03:35:00,,0826.5,5.00,0.00,25.3,23.7,00.0,34.2,27.1,08.1,0003.4,0025.27,0013.26,0011.60
2023-02-02 03:36:00,,0826.5,5.00,0.00,25.3,23.7,00.0,34.2,27.1,08.1,0003.3,0025.29,0013.30,0011.64
2023-02-02 03:37:00,,0826.5,5.01,0.00,25.3,23.7,00.0,34.2,27.1,08.2,0002.7,0025.52,0013.49,0011.76
2023-02-02 03:38:00,,0826.6,5.00,0.00,25.3,23.6,00.0,34.2,27.1,08.2,0002.1,0026.31,0013.62,0011.85
2023-02-02 03:39:00,,0826.5,5.00,0.00,25.3,23.6,00.0,34.2,27.1,08.2,0002.0,0027.09,0013.72,0011.89
2023-02-02 03:40:00,,0826.6,4.99,0.00,25.3,23.6,00.0,34.2,27.1,08.2,0002.4,0028.15,0013.77,0011.88
2023-02-02 03:41:00,,0826.5,5.00,0.00,25.3,23.6,00.0,34.2,27.1,08.2,0002.0,0028.99,0013.77,0011.85
2023-02-02 03:42:00,,0826.5,5.00,0.00,25.2,23.6,00.0,34.2,27.0,08.2,0002.0,0028.95,0013.62,0011.71
2023-02-02 03:43:00,,0826.5,5.01,0.00,25.2,23.6,00.0,34.1,27.0,08.3,0002.8,0028.08,0013.56,0011.69
2023-02-02 03:44:00,,0826.5,5.01,0.00,25.2,23.5,00.0,34.1,27.0,08.3,0002.8,0027.91,0013.73,0011.82
2023-02-02 03:45:00,,0826.5,5.01,0.00,25.2,23.5,00.0,34.1,27.0,08.3,0002.5,0027.46,0013.75,0011.88
2023-02-02 03:46:00,,0826.5,5.00,0.00,25.2,23.5,00.0,34.1,27.0,08.3,0002.4,0028.09,0013.74,0011.90
2023-02-02 03:47:00,,0826.5,5.00,0.00,25.2,23.5,00.0,34.1,27.0,08.3,0002.6,0028.61,0013.73,0011.91
2023-02-02 03:48:00,,0826.5,5.01,0.00,25.2,23.5,00.0,34.1,27.0,08.3,0002.3,0028.56,0013.55,0011.80
2023-02-02 03:49:00,,0826.5,4.98,0.00,25.2,23.5,00.0,34.1,27.0,08.2,0002.7,0027.77,0013.44,0011.71
2023-02-02 03:50:00,,0826.6,5.00,0.00,25.2,23.5,00.0,34.1,27.0,08.2,0002.9,0027.11,0013.26,0011.56
2023-02-02 03:51:00,,0826.5,5.00,0.00,25.2,23.5,00.0,34.1,26.9,08.2,0002.1,0025.94,0013.07,0011.44
2023-02-02 03:52:00,,0826.5,5.01,0.00,25.2,23.5,00.0,34.0,26.9,08.2,0001.8,0024.64,0012.92,0011.34
2023-02-02 03:53:00,,0826.6,5.00,0.00,25.1,23.5,00.0,34.0,26.9,08.2,0001.9,0024.63,0012.99,0011.38
2023-02-02 03:54:00,,0826.6,5.00,0.00,25.1,23.4,00.0,34.0,26.9,08.3,0001.7,0024.70,0012.94,0011.34
2023-02-02 03:55:00,,0826.6,5.00,0.00,25.1,23.4,00.0,34.0,26.9,08.3,0001.3,0024.80,0012.67,0011.14
2023-02-02 03:56:00,,0826.6,5.00,0.00,25.1,23.5,00.0,34.0,26.9,08.3,0001.8,0024.52,0012.35,0010.89
2023-02-02 03:57:00,,0826.6,5.00,0.00,25.1,23.4,00.0,34.0,26.9,08.3,0002.2,0024.21,0012.18,0010.67
2023-02-02 03:58:00,,0826.7,5.01,0.00,25.1,23.4,00.0,34.0,26.9,08.3,0002.2,0023.24,0012.00,0010.44
2023-02-02 03:59:00,,0826.7,5.00,0.00,25.1,23.4,00.0,34.0,26.8,08.3,0002.0,0022.65,0011.84,0010.29
